Вернуться в каталог

CZ-4C R/B

АктивенSSO
NORAD 43462·ROCKET BODY·🇨🇳 China

Запущен May 8, 2018 с Taiyuan Satellite Launch Center

Loading…

Ближайшие Пролёты (ближайшие 24 часа)

TLE

СвежийSource: Space-Track

Эпоха: Sep 14, 2026, 22:00 UTC

1 43462U 18043B   26257.91705027  .00000696  00000-0  79352-4 0  9999
2 43462  98.1504 328.4799 0084276 257.4757 101.7021 14.87246550452100

Отслеживайте CZ-4C R/B в реальном времени с AllMySat

Download on the App Store